Location: ???
(35.5616°N, 139.7977°E)
Time: 20:38:50
(UTC+00:00)

Helios 1A Rocket - Pass Details

Date: 17 November 2025
Orbit: 439 x 452 km, 98.3° (Epoch: 08 December)

Event Time Altitude Azimuth Distance (km) Brightness Sun altitude
Rises 20:29:06 0° 182° (S) 2,425 6.3 -10.4°
Reaches altitude 10° 20:31:13 10° 190° (S) 1,556 5.2 -10.0°
Maximum altitude 20:34:20 38° 260° (W) 692 2.9 -9.4°
Drops below altitude 10° 20:37:29 10° 330° (NNW) 1,561 4.7 -8.8°
Enters shadow 20:39:21 - 338° (NNW) 2,331 5.6 -8.4°
